�N����,�����b,���ԉ��x,���Ԏ��x,��󒲎�,����,�����W
2003/8/1,0:00:00,24.8 ,75.9 ,23.8 ,21.2 ,25.2 
2003/8/1,0:15:00,24.8 ,76.2 ,23.8 ,21.2 ,25.1 
2003/8/1,0:30:00,24.8 ,76.1 ,23.8 ,21.2 ,25.1 
2003/8/1,0:45:00,24.8 ,75.8 ,23.8 ,21.2 ,25.1 
2003/8/1,1:00:00,24.8 ,76.4 ,23.8 ,21.3 ,25.1 
2003/8/1,1:15:00,24.8 ,76.5 ,23.8 ,21.3 ,25.0 
2003/8/1,1:30:00,24.8 ,76.1 ,23.8 ,21.3 ,25.0 
2003/8/1,1:45:00,24.8 ,76.0 ,23.8 ,21.4 ,25.0 
2003/8/1,2:00:00,24.7 ,75.4 ,23.8 ,21.4 ,24.9 
2003/8/1,2:15:00,24.7 ,75.3 ,23.8 ,21.4 ,24.9 
2003/8/1,2:30:00,24.7 ,75.1 ,23.8 ,21.4 ,24.8 
2003/8/1,2:45:00,24.7 ,75.1 ,23.8 ,21.4 ,24.8 
2003/8/1,3:00:00,24.7 ,74.9 ,23.7 ,21.5 ,24.8 
2003/8/1,3:15:00,24.6 ,75.1 ,23.7 ,21.5 ,24.8 
2003/8/1,3:30:00,24.6 ,74.9 ,23.7 ,21.5 ,24.7 
2003/8/1,3:45:00,24.6 ,74.7 ,23.7 ,21.6 ,24.7 
2003/8/1,4:00:00,24.6 ,74.8 ,23.7 ,21.6 ,24.7 
2003/8/1,4:15:00,24.5 ,74.7 ,23.7 ,21.6 ,24.7 
2003/8/1,4:30:00,24.5 ,74.7 ,23.7 ,21.6 ,24.6 
2003/8/1,4:45:00,24.5 ,74.7 ,23.7 ,21.6 ,24.6 
2003/8/1,5:00:00,24.5 ,74.7 ,23.6 ,21.7 ,24.6 
2003/8/1,5:15:00,24.5 ,74.6 ,23.6 ,21.7 ,24.6 
2003/8/1,5:30:00,24.5 ,74.6 ,23.6 ,21.7 ,24.6 
2003/8/1,5:45:00,24.5 ,74.6 ,23.6 ,21.7 ,24.5 
2003/8/1,6:00:00,24.5 ,74.7 ,23.6 ,21.7 ,24.5 
2003/8/1,6:15:00,24.4 ,74.7 ,23.6 ,21.8 ,24.5 
2003/8/1,6:30:00,24.5 ,74.7 ,23.6 ,21.3 ,24.5 
2003/8/1,6:45:00,24.5 ,74.8 ,23.6 ,21.4 ,24.5 
2003/8/1,7:00:00,24.5 ,74.8 ,23.6 ,21.4 ,24.6 
2003/8/1,7:15:00,24.5 ,74.9 ,23.6 ,21.4 ,24.6 
2003/8/1,7:30:00,24.5 ,75.5 ,23.6 ,21.1 ,24.7 
2003/8/1,7:45:00,24.5 ,76.1 ,23.6 ,21.1 ,24.7 
2003/8/1,8:00:00,24.4 ,76.5 ,23.6 ,21.1 ,24.7 
2003/8/1,8:15:00,24.5 ,76.3 ,23.6 ,21.3 ,24.7 
2003/8/1,8:30:00,24.5 ,76.9 ,23.6 ,21.3 ,24.7 
2003/8/1,8:45:00,24.5 ,77.1 ,23.6 ,21.1 ,24.8 
2003/8/1,9:00:00,24.5 ,77.2 ,23.6 ,21.1 ,24.7 
2003/8/1,9:15:00,24.6 ,77.4 ,23.6 ,21.2 ,24.8 
2003/8/1,9:30:00,24.8 ,78.6 ,23.7 ,21.2 ,24.9 
2003/8/1,9:45:00,24.6 ,79.5 ,23.8 ,21.2 ,25.1 
2003/8/1,10:00:00,24.7 ,80.3 ,23.8 ,21.3 ,25.1 
2003/8/1,10:15:00,24.7 ,80.2 ,24.0 ,21.3 ,25.1 
2003/8/1,10:30:00,24.8 ,78.9 ,24.0 ,21.3 ,25.1 
2003/8/1,10:45:00,24.7 ,78.9 ,24.0 ,21.4 ,25.2 
2003/8/1,11:00:00,24.9 ,79.2 ,24.0 ,21.2 ,25.3 
2003/8/1,11:15:00,25.0 ,78.5 ,24.1 ,21.2 ,25.4 
2003/8/1,11:30:00,25.2 ,77.5 ,24.2 ,21.2 ,25.4 
2003/8/1,11:45:00,25.3 ,77.9 ,24.3 ,21.3 ,25.5 
2003/8/1,12:00:00,25.4 ,77.4 ,24.4 ,21.3 ,25.7 
2003/8/1,12:15:00,25.4 ,78.9 ,24.4 ,21.3 ,25.8 
2003/8/1,12:30:00,25.6 ,78.4 ,24.5 ,21.0 ,25.8 
2003/8/1,12:45:00,25.8 ,77.0 ,24.6 ,21.0 ,26.5 
2003/8/1,13:00:00,26.0 ,77.3 ,24.7 ,21.0 ,26.6 
2003/8/1,13:15:00,26.2 ,77.5 ,24.7 ,21.1 ,26.7 
2003/8/1,13:30:00,26.3 ,76.2 ,24.9 ,21.1 ,27.1 
2003/8/1,13:45:00,26.5 ,77.1 ,25.0 ,21.2 ,27.1 
2003/8/1,14:00:00,26.5 ,77.4 ,25.1 ,21.2 ,27.1 
2003/8/1,14:15:00,26.7 ,76.1 ,25.3 ,21.2 ,27.1 
2003/8/1,14:30:00,26.7 ,76.5 ,25.5 ,21.3 ,27.0 
2003/8/1,14:45:00,26.8 ,76.4 ,25.5 ,21.3 ,27.0 
2003/8/1,15:00:00,26.9 ,76.5 ,25.6 ,21.3 ,27.1 
2003/8/1,15:15:00,27.0 ,76.5 ,25.8 ,21.4 ,27.2 
2003/8/1,15:30:00,27.1 ,77.0 ,25.9 ,21.5 ,27.3 
2003/8/1,15:45:00,27.1 ,77.6 ,26.0 ,21.5 ,27.3 
2003/8/1,16:00:00,27.1 ,77.7 ,26.1 ,21.6 ,27.3 
2003/8/1,16:15:00,27.2 ,77.5 ,26.1 ,21.6 ,27.4 
2003/8/1,16:30:00,27.2 ,77.1 ,26.1 ,21.6 ,27.4 
2003/8/1,16:45:00,27.2 ,77.9 ,26.2 ,21.7 ,27.4 
2003/8/1,17:00:00,27.2 ,78.5 ,26.2 ,21.0 ,27.4 
2003/8/1,17:15:00,27.2 ,78.9 ,26.3 ,21.1 ,27.4 
2003/8/1,17:30:00,27.1 ,78.9 ,26.3 ,21.2 ,27.4 
2003/8/1,17:45:00,27.1 ,78.3 ,26.3 ,21.2 ,27.4 
2003/8/1,18:00:00,27.1 ,77.6 ,26.3 ,21.3 ,27.4 
2003/8/1,18:15:00,27.0 ,77.9 ,26.3 ,21.3 ,27.3 
2003/8/1,18:30:00,27.0 ,79.4 ,26.3 ,21.4 ,27.3 
2003/8/1,18:45:00,26.9 ,80.9 ,26.3 ,21.4 ,27.1 
2003/8/1,19:00:00,26.8 ,82.1 ,26.2 ,21.5 ,27.1 
2003/8/1,19:15:00,26.8 ,82.5 ,26.2 ,21.5 ,27.0 
2003/8/1,19:30:00,26.8 ,81.5 ,26.1 ,21.4 ,27.0 
2003/8/1,19:45:00,26.8 ,81.8 ,26.1 ,21.4 ,27.0 
2003/8/1,20:00:00,26.7 ,81.5 ,26.0 ,21.3 ,27.0 
2003/8/1,20:15:00,26.7 ,81.2 ,26.0 ,21.3 ,26.9 
2003/8/1,20:30:00,26.6 ,81.3 ,25.9 ,21.4 ,26.8 
2003/8/1,20:45:00,26.6 ,80.8 ,25.9 ,21.4 ,26.7 
2003/8/1,21:00:00,26.6 ,80.9 ,25.8 ,21.4 ,26.7 
2003/8/1,21:15:00,26.5 ,80.1 ,25.8 ,21.5 ,26.7 
2003/8/1,21:30:00,26.5 ,79.7 ,25.7 ,21.5 ,26.6 
2003/8/1,21:45:00,26.4 ,79.6 ,25.7 ,21.6 ,26.6 
2003/8/1,22:00:00,26.3 ,79.4 ,25.6 ,21.6 ,26.4 
2003/8/1,22:15:00,26.2 ,79.3 ,25.5 ,21.7 ,26.3 
2003/8/1,22:30:00,26.2 ,79.1 ,25.4 ,21.7 ,26.3 
2003/8/1,22:45:00,26.1 ,79.2 ,25.3 ,21.7 ,26.3 
2003/8/1,23:00:00,26.0 ,79.3 ,25.3 ,21.8 ,26.2 
2003/8/1,23:15:00,26.0 ,79.2 ,25.2 ,21.8 ,26.1 
2003/8/1,23:30:00,26.0 ,79.3 ,25.2 ,21.8 ,26.1 
2003/8/1,23:45:00,25.9 ,79.0 ,25.1 ,21.9 ,26.1 
2003/8/2,0:00:00,25.8 ,78.7 ,25.0 ,21.9 ,26.0 
2003/8/2,0:15:00,25.8 ,78.6 ,25.0 ,21.9 ,25.9 
2003/8/2,0:30:00,25.7 ,78.6 ,24.9 ,22.0 ,25.8 
2003/8/2,0:45:00,25.6 ,78.8 ,24.9 ,21.2 ,25.7 
2003/8/2,1:00:00,25.7 ,79.5 ,24.8 ,21.5 ,25.8 
2003/8/2,1:15:00,25.8 ,79.1 ,24.8 ,21.5 ,25.9 
2003/8/2,1:30:00,25.8 ,79.8 ,24.8 ,21.6 ,26.0 
2003/8/2,1:45:00,25.8 ,79.5 ,24.8 ,21.6 ,26.0 
2003/8/2,2:00:00,25.9 ,79.7 ,24.8 ,21.6 ,26.1 
2003/8/2,2:15:00,25.9 ,79.4 ,24.8 ,21.7 ,26.1 
2003/8/2,2:30:00,25.9 ,79.2 ,24.8 ,21.7 ,26.1 
2003/8/2,2:45:00,25.9 ,79.1 ,24.8 ,21.8 ,26.1 
2003/8/2,3:00:00,25.9 ,79.0 ,24.8 ,21.8 ,26.1 
2003/8/2,3:15:00,25.9 ,78.8 ,24.8 ,21.8 ,26.1 
2003/8/2,3:30:00,25.9 ,78.7 ,24.8 ,21.9 ,26.1 
2003/8/2,3:45:00,25.9 ,78.6 ,24.8 ,21.9 ,26.1 
2003/8/2,4:00:00,25.9 ,78.7 ,24.8 ,21.9 ,26.1 
2003/8/2,4:15:00,25.9 ,78.7 ,24.8 ,22.0 ,26.0 
2003/8/2,4:30:00,25.9 ,78.6 ,24.8 ,22.0 ,26.0 
2003/8/2,4:45:00,25.9 ,78.6 ,24.8 ,22.0 ,26.0 
2003/8/2,5:00:00,25.8 ,78.9 ,24.8 ,22.0 ,26.1 
2003/8/2,5:15:00,25.9 ,78.8 ,24.8 ,22.1 ,26.1 
2003/8/2,5:30:00,25.8 ,78.8 ,24.8 ,22.1 ,26.1 
2003/8/2,5:45:00,25.8 ,78.9 ,24.7 ,22.1 ,26.0 
2003/8/2,6:00:00,25.9 ,78.8 ,24.7 ,22.1 ,26.0 
2003/8/2,6:15:00,25.9 ,78.7 ,24.7 ,22.2 ,26.1 
2003/8/2,6:30:00,26.0 ,78.5 ,24.7 ,22.2 ,26.2 
2003/8/2,6:45:00,26.1 ,78.5 ,24.7 ,22.2 ,26.3 
2003/8/2,7:00:00,26.1 ,78.4 ,24.8 ,22.2 ,26.4 
2003/8/2,7:15:00,26.2 ,78.4 ,24.8 ,22.2 ,26.4 
2003/8/2,7:30:00,26.2 ,78.0 ,24.8 ,22.3 ,26.4 
2003/8/2,7:45:00,26.3 ,78.8 ,24.8 ,21.5 ,26.5 
2003/8/2,8:00:00,26.5 ,78.3 ,24.8 ,21.6 ,26.6 
2003/8/2,8:15:00,26.8 ,77.1 ,24.8 ,21.3 ,26.8 
2003/8/2,8:30:00,27.0 ,77.0 ,25.1 ,21.3 ,27.1 
2003/8/2,8:45:00,27.3 ,76.6 ,25.4 ,21.3 ,27.3 
2003/8/2,9:00:00,27.6 ,75.8 ,25.6 ,21.4 ,27.4 
2003/8/2,9:15:00,27.7 ,73.9 ,25.8 ,21.4 ,27.7 
2003/8/2,9:30:00,28.2 ,70.9 ,26.0 ,21.5 ,27.9 
2003/8/2,9:45:00,28.3 ,68.5 ,26.2 ,21.5 ,28.1 
2003/8/2,10:00:00,28.9 ,67.7 ,26.5 ,21.5 ,28.3 
2003/8/2,10:15:00,28.8 ,68.5 ,26.7 ,21.6 ,28.5 
2003/8/2,10:30:00,28.8 ,69.5 ,26.8 ,21.6 ,28.6 
2003/8/2,10:45:00,28.8 ,69.9 ,26.7 ,21.6 ,28.7 
2003/8/2,11:00:00,28.8 ,70.7 ,26.6 ,21.7 ,28.8 
2003/8/2,11:15:00,28.9 ,69.5 ,26.6 ,21.7 ,28.8 
2003/8/2,11:30:00,29.1 ,66.9 ,26.6 ,21.8 ,29.0 
2003/8/2,11:45:00,29.1 ,66.5 ,26.7 ,21.9 ,29.1 
2003/8/2,12:00:00,29.2 ,64.7 ,26.7 ,21.9 ,29.1 
2003/8/2,12:15:00,29.3 ,65.0 ,26.7 ,22.0 ,29.2 
2003/8/2,12:30:00,29.3 ,64.0 ,26.8 ,22.0 ,29.2 
2003/8/2,12:45:00,29.3 ,64.9 ,26.8 ,22.1 ,29.2 
2003/8/2,13:00:00,29.3 ,64.5 ,26.8 ,22.1 ,29.3 
2003/8/2,13:15:00,29.3 ,65.8 ,26.9 ,22.1 ,29.3 
2003/8/2,13:30:00,29.4 ,66.4 ,26.9 ,22.2 ,29.3 
2003/8/2,13:45:00,29.5 ,65.1 ,26.9 ,22.0 ,29.3 
2003/8/2,14:00:00,29.4 ,65.2 ,27.0 ,21.7 ,29.3 
2003/8/2,14:15:00,29.5 ,62.9 ,27.0 ,21.4 ,29.4 
2003/8/2,14:30:00,29.5 ,65.5 ,27.1 ,20.9 ,29.4 
2003/8/2,14:45:00,29.5 ,66.2 ,27.1 ,19.6 ,29.5 
2003/8/2,15:00:00,29.6 ,64.2 ,27.2 ,17.4 ,29.5 
2003/8/2,15:15:00,29.6 ,64.6 ,27.2 ,,29.5 
2003/8/2,15:30:00,29.6 ,65.4 ,27.2 ,,29.5 
2003/8/2,15:45:00,29.5 ,65.9 ,27.3 ,,29.5 
2003/8/2,16:00:00,29.5 ,66.3 ,27.3 ,,29.6 
2003/8/2,16:15:00,29.5 ,66.8 ,27.3 ,,29.6 
2003/8/2,16:30:00,29.5 ,68.0 ,27.4 ,,29.6 
2003/8/2,16:45:00,29.4 ,68.0 ,27.4 ,,29.6 
2003/8/2,17:00:00,29.2 ,69.8 ,27.5 ,,29.5 
2003/8/2,17:15:00,29.0 ,71.5 ,27.5 ,,30.2 
2003/8/2,17:30:00,28.8 ,70.3 ,27.5 ,,33.3 
2003/8/2,17:45:00,28.9 ,72.5 ,27.5 ,,33.9 
2003/8/2,18:00:00,28.7 ,71.8 ,27.5 ,,31.9 
2003/8/2,18:15:00,28.7 ,73.2 ,27.5 ,,30.6 
2003/8/2,18:30:00,28.7 ,71.0 ,27.5 ,,30.2 
2003/8/2,18:45:00,28.7 ,71.1 ,27.4 ,,29.9 
2003/8/2,19:00:00,28.5 ,71.3 ,27.4 ,,29.6 
2003/8/2,19:15:00,28.4 ,71.9 ,27.4 ,,29.4 
2003/8/2,19:30:00,28.4 ,72.4 ,27.3 ,,29.2 
2003/8/2,19:45:00,28.3 ,73.1 ,27.3 ,,29.0 
2003/8/2,20:00:00,28.2 ,73.7 ,27.3 ,,28.8 
2003/8/2,20:15:00,28.2 ,73.7 ,27.2 ,,28.7 
2003/8/2,20:30:00,28.1 ,74.1 ,27.2 ,,28.6 
2003/8/2,20:45:00,27.9 ,74.8 ,27.1 ,,28.5 
2003/8/2,21:00:00,28.0 ,74.9 ,27.1 ,,28.4 
2003/8/2,21:15:00,27.9 ,75.3 ,27.1 ,,28.3 
2003/8/2,21:30:00,27.9 ,75.2 ,27.0 ,,28.2 
2003/8/2,21:45:00,27.8 ,75.1 ,27.0 ,,28.1 
2003/8/2,22:00:00,27.7 ,76.1 ,26.9 ,,28.1 
2003/8/2,22:15:00,27.7 ,76.1 ,26.9 ,,28.0 
2003/8/2,22:30:00,27.6 ,76.9 ,26.8 ,,28.0 
2003/8/2,22:45:00,27.6 ,76.7 ,26.7 ,,27.9 
2003/8/2,23:00:00,27.6 ,76.1 ,26.5 ,,27.8 
2003/8/2,23:15:00,27.6 ,75.4 ,26.5 ,,27.9 
2003/8/2,23:30:00,27.7 ,75.1 ,26.4 ,,28.4 
2003/8/2,23:45:00,27.6 ,75.4 ,26.3 ,,28.5 
2003/8/3,0:00:00,27.6 ,76.6 ,26.2 ,,28.5 
2003/8/3,0:15:00,27.6 ,77.5 ,26.3 ,,29.5 
2003/8/3,0:30:00,27.7 ,77.2 ,26.4 ,,29.4 
2003/8/3,0:45:00,27.7 ,76.7 ,26.5 ,,29.1 
2003/8/3,1:00:00,27.7 ,76.1 ,26.5 ,,28.9 
2003/8/3,1:15:00,27.8 ,75.5 ,26.6 ,,28.8 
2003/8/3,1:30:00,27.8 ,75.7 ,26.7 ,,28.6 
2003/8/3,1:45:00,27.8 ,75.1 ,26.8 ,,28.5 
2003/8/3,2:00:00,27.8 ,74.9 ,26.9 ,,28.3 
2003/8/3,2:15:00,27.8 ,74.7 ,27.0 ,,28.3 
2003/8/3,2:30:00,27.8 ,74.5 ,27.1 ,,28.2 
2003/8/3,2:45:00,27.8 ,74.5 ,27.2 ,,28.2 
2003/8/3,3:00:00,27.8 ,74.4 ,27.3 ,,28.1 
2003/8/3,3:15:00,27.8 ,74.4 ,27.3 ,,28.1 
2003/8/3,3:30:00,27.7 ,74.4 ,27.4 ,,28.0 
2003/8/3,3:45:00,27.7 ,74.4 ,27.5 ,,28.0 
2003/8/3,4:00:00,27.7 ,74.3 ,27.6 ,,27.9 
2003/8/3,4:15:00,27.7 ,74.2 ,27.6 ,,27.9 
2003/8/3,4:30:00,27.7 ,74.2 ,27.7 ,,27.9 
2003/8/3,4:45:00,27.6 ,74.2 ,27.7 ,,27.9 
2003/8/3,5:00:00,27.6 ,74.1 ,27.8 ,,27.9 
2003/8/3,5:15:00,27.6 ,74.1 ,27.8 ,,27.8 
2003/8/3,5:30:00,27.6 ,74.1 ,27.9 ,,27.8 
2003/8/3,5:45:00,27.6 ,73.9 ,27.9 ,,27.8 
2003/8/3,6:00:00,27.7 ,74.0 ,28.0 ,,27.7 
2003/8/3,6:15:00,27.7 ,74.1 ,28.0 ,,27.8 
2003/8/3,6:30:00,27.8 ,73.0 ,28.0 ,,27.9 
2003/8/3,6:45:00,27.9 ,72.9 ,27.9 ,,28.0 
2003/8/3,7:00:00,28.0 ,72.5 ,27.8 ,,28.1 
2003/8/3,7:15:00,28.1 ,72.6 ,27.8 ,,28.2 
2003/8/3,7:30:00,28.2 ,72.2 ,27.8 ,,28.3 
2003/8/3,7:45:00,28.3 ,70.4 ,27.8 ,,28.4 
2003/8/3,8:00:00,28.0 ,70.7 ,27.7 ,,28.6 
2003/8/3,8:15:00,28.2 ,70.6 ,27.6 ,,28.8 
2003/8/3,8:30:00,28.5 ,70.2 ,27.6 ,,28.8 
2003/8/3,8:45:00,28.8 ,69.8 ,27.6 ,,29.0 
2003/8/3,9:00:00,29.2 ,68.8 ,27.7 ,,29.0 
2003/8/3,9:15:00,29.1 ,69.4 ,27.8 ,,29.2 
2003/8/3,9:30:00,29.1 ,68.6 ,27.7 ,,29.2 
2003/8/3,9:45:00,29.2 ,69.2 ,27.7 ,,29.2 
2003/8/3,10:00:00,29.2 ,69.3 ,27.7 ,,29.2 
2003/8/3,10:15:00,29.3 ,68.4 ,27.7 ,,29.3 
2003/8/3,10:30:00,29.4 ,67.6 ,27.7 ,,29.4 
2003/8/3,10:45:00,29.5 ,66.1 ,27.7 ,,29.5 
2003/8/3,11:00:00,29.6 ,66.2 ,27.7 ,,29.6 
2003/8/3,11:15:00,29.7 ,64.9 ,27.7 ,,29.6 
2003/8/3,11:30:00,29.8 ,65.4 ,27.7 ,,29.7 
2003/8/3,11:45:00,29.8 ,65.4 ,27.8 ,,29.7 
2003/8/3,12:00:00,29.9 ,64.5 ,27.8 ,,29.8 
2003/8/3,12:15:00,30.1 ,61.0 ,27.8 ,,30.0 
2003/8/3,12:30:00,30.1 ,61.5 ,27.8 ,,30.0 
2003/8/3,12:45:00,30.2 ,60.6 ,27.9 ,,30.1 
2003/8/3,13:00:00,30.2 ,60.9 ,27.9 ,,30.2 
2003/8/3,13:15:00,30.4 ,56.4 ,27.9 ,,30.2 
2003/8/3,13:30:00,30.3 ,56.6 ,27.9 ,,30.2 
2003/8/3,13:45:00,30.4 ,56.0 ,27.9 ,,30.2 
2003/8/3,14:00:00,30.4 ,56.0 ,28.0 ,,30.3 
2003/8/3,14:15:00,30.4 ,56.2 ,28.0 ,,30.3 
2003/8/3,14:30:00,30.5 ,54.5 ,28.0 ,,30.2 
2003/8/3,14:45:00,30.4 ,55.9 ,28.0 ,,30.3 
2003/8/3,15:00:00,30.4 ,55.9 ,28.0 ,,30.3 
2003/8/3,15:15:00,30.4 ,57.1 ,28.0 ,,30.3 
2003/8/3,15:30:00,30.3 ,58.1 ,28.0 ,,30.3 
2003/8/3,15:45:00,30.3 ,58.7 ,28.1 ,,30.2 
2003/8/3,16:00:00,30.2 ,58.6 ,28.1 ,,30.1 
2003/8/3,16:15:00,30.1 ,59.4 ,28.1 ,,30.1 
2003/8/3,16:30:00,30.0 ,60.0 ,28.1 ,,30.0 
2003/8/3,16:45:00,30.0 ,60.2 ,28.1 ,,30.0 
2003/8/3,17:00:00,29.9 ,62.4 ,28.1 ,,29.9 
2003/8/3,17:15:00,29.8 ,65.8 ,28.1 ,,29.8 
2003/8/3,17:30:00,29.7 ,66.5 ,28.1 ,,29.7 
2003/8/3,17:45:00,29.7 ,66.3 ,28.2 ,,29.7 
2003/8/3,18:00:00,29.7 ,64.9 ,28.2 ,,29.8 
2003/8/3,18:15:00,29.7 ,64.2 ,28.2 ,,29.8 
2003/8/3,18:30:00,29.6 ,64.8 ,28.2 ,,29.7 
2003/8/3,18:45:00,29.5 ,65.8 ,28.2 ,,29.7 
2003/8/3,19:00:00,29.5 ,66.1 ,28.2 ,,29.6 
2003/8/3,19:15:00,29.4 ,66.6 ,28.1 ,,29.5 
2003/8/3,19:30:00,29.3 ,66.7 ,28.1 ,,29.4 
2003/8/3,19:45:00,29.3 ,66.8 ,28.1 ,,29.3 
2003/8/3,20:00:00,29.2 ,66.9 ,28.1 ,,29.3 
2003/8/3,20:15:00,29.2 ,67.1 ,28.0 ,,29.2 
2003/8/3,20:30:00,29.1 ,67.3 ,28.0 ,,29.1 
2003/8/3,20:45:00,29.1 ,67.7 ,28.0 ,,29.1 
2003/8/3,21:00:00,29.0 ,67.8 ,28.0 ,,29.1 
2003/8/3,21:15:00,28.9 ,67.8 ,27.9 ,,29.0 
2003/8/3,21:30:00,28.9 ,68.1 ,27.9 ,,28.9 
2003/8/3,21:45:00,28.8 ,68.5 ,27.8 ,,28.8 
2003/8/3,22:00:00,28.8 ,68.9 ,27.8 ,,28.8 
2003/8/3,22:15:00,28.6 ,70.7 ,27.8 ,,28.8 
2003/8/3,22:30:00,28.5 ,71.4 ,27.7 ,,28.6 
2003/8/3,22:45:00,28.5 ,72.2 ,27.6 ,,28.5 
2003/8/3,23:00:00,28.4 ,71.6 ,27.5 ,,28.4 
2003/8/3,23:15:00,28.4 ,72.8 ,27.5 ,,28.4 
2003/8/3,23:30:00,28.4 ,73.2 ,27.5 ,,28.4 
2003/8/3,23:45:00,28.3 ,73.4 ,27.5 ,,28.4 
2003/8/4,0:00:00,28.3 ,73.1 ,27.5 ,,28.4 
2003/8/4,0:15:00,28.2 ,73.5 ,27.4 ,,28.3 
2003/8/4,0:30:00,28.1 ,73.2 ,27.4 ,,28.2 
2003/8/4,0:45:00,28.3 ,73.1 ,27.4 ,,28.3 
2003/8/4,1:00:00,28.4 ,72.7 ,27.4 ,,28.4 
2003/8/4,1:15:00,28.4 ,72.8 ,27.4 ,,28.5 
2003/8/4,1:30:00,28.4 ,71.9 ,27.4 ,,28.5 
2003/8/4,1:45:00,28.4 ,71.9 ,27.4 ,,28.5 
2003/8/4,2:00:00,28.4 ,71.8 ,27.4 ,,28.5 
2003/8/4,2:15:00,28.4 ,71.8 ,27.4 ,,28.5 
2003/8/4,2:30:00,28.4 ,71.8 ,27.4 ,,28.5 
2003/8/4,2:45:00,28.4 ,71.8 ,27.4 ,,28.5 
2003/8/4,3:00:00,28.3 ,71.8 ,27.4 ,,28.4 
2003/8/4,3:15:00,28.3 ,71.8 ,27.4 ,,28.4 
2003/8/4,3:30:00,28.3 ,71.8 ,27.4 ,,28.4 
2003/8/4,3:45:00,28.3 ,71.8 ,27.4 ,,28.4 
2003/8/4,4:00:00,28.3 ,71.8 ,27.4 ,,28.4 
2003/8/4,4:15:00,28.2 ,71.8 ,27.3 ,,28.4 
2003/8/4,4:30:00,28.2 ,71.8 ,27.3 ,,28.3 
2003/8/4,4:45:00,28.2 ,71.9 ,27.3 ,,28.3 
2003/8/4,5:00:00,28.1 ,71.8 ,27.3 ,,28.3 
2003/8/4,5:15:00,28.1 ,71.7 ,27.3 ,,28.3 
2003/8/4,5:30:00,28.1 ,71.8 ,27.3 ,,28.3 
2003/8/4,5:45:00,28.1 ,71.8 ,27.3 ,,28.2 
2003/8/4,6:00:00,28.1 ,71.8 ,27.3 ,,28.2 
2003/8/4,6:15:00,28.1 ,71.8 ,27.2 ,,28.2 
2003/8/4,6:30:00,28.1 ,71.7 ,27.2 ,,28.2 
2003/8/4,6:45:00,28.1 ,71.8 ,27.2 ,,28.3 
2003/8/4,7:00:00,28.2 ,71.6 ,27.2 ,,28.3 
2003/8/4,7:15:00,28.3 ,71.6 ,27.3 ,,28.4 
2003/8/4,7:30:00,28.3 ,71.3 ,27.3 ,,28.5 
2003/8/4,7:45:00,28.4 ,71.4 ,27.3 ,,28.6 
2003/8/4,8:00:00,28.5 ,72.7 ,27.3 ,,28.6 
2003/8/4,8:15:00,28.6 ,72.8 ,27.3 ,,28.7 
2003/8/4,8:30:00,28.7 ,72.4 ,27.4 ,,28.8 
2003/8/4,8:45:00,28.8 ,73.1 ,27.6 ,,28.9 
2003/8/4,9:00:00,28.9 ,73.8 ,27.7 ,,28.9 
2003/8/4,9:15:00,29.1 ,72.2 ,27.8 ,,29.1 
2003/8/4,9:30:00,29.2 ,70.5 ,27.9 ,,29.2 
2003/8/4,9:45:00,29.4 ,67.4 ,28.0 ,,29.3 
2003/8/4,10:00:00,29.6 ,67.8 ,28.0 ,,29.4 
2003/8/4,10:15:00,29.9 ,67.0 ,28.2 ,,29.6 
2003/8/4,10:30:00,30.0 ,67.6 ,28.3 ,,29.9 
2003/8/4,10:45:00,30.3 ,66.0 ,28.5 ,,30.1 
2003/8/4,11:00:00,30.3 ,63.5 ,28.6 ,,30.2 
2003/8/4,11:15:00,30.3 ,64.2 ,28.7 ,,30.2 
2003/8/4,11:30:00,30.4 ,63.5 ,28.5 ,,30.2 
2003/8/4,11:45:00,30.5 ,63.7 ,28.4 ,,30.3 
2003/8/4,12:00:00,30.6 ,62.6 ,28.4 ,,30.4 
2003/8/4,12:15:00,30.6 ,62.3 ,28.4 ,,30.5 
2003/8/4,12:30:00,30.6 ,62.7 ,28.4 ,,30.6 
2003/8/4,12:45:00,30.7 ,63.2 ,28.4 ,,30.6 
2003/8/4,13:00:00,30.7 ,63.1 ,28.5 ,,30.6 
2003/8/4,13:15:00,30.7 ,63.1 ,28.5 ,,30.6 
2003/8/4,13:30:00,30.7 ,62.9 ,28.5 ,,30.6 
2003/8/4,13:45:00,30.5 ,63.6 ,28.5 ,,30.6 
2003/8/4,14:00:00,30.5 ,63.6 ,28.5 ,,30.6 
2003/8/4,14:15:00,30.5 ,64.1 ,28.6 ,,30.6 
2003/8/4,14:30:00,30.4 ,64.7 ,28.6 ,,30.5 
2003/8/4,14:45:00,30.5 ,64.7 ,28.6 ,,30.4 
2003/8/4,15:00:00,30.5 ,64.8 ,28.6 ,,30.4 
2003/8/4,15:15:00,30.2 ,65.1 ,28.6 ,,30.4 
2003/8/4,15:30:00,30.2 ,66.0 ,28.6 ,,30.3 
2003/8/4,15:45:00,30.1 ,66.6 ,28.6 ,,30.2 
2003/8/4,16:00:00,29.9 ,67.0 ,28.6 ,,30.2 
2003/8/4,16:15:00,29.6 ,67.7 ,28.6 ,,30.0 
2003/8/4,16:30:00,29.4 ,68.3 ,28.5 ,,29.8 
2003/8/4,16:45:00,29.5 ,68.7 ,28.5 ,,29.7 
2003/8/4,17:00:00,29.4 ,69.6 ,28.5 ,,29.7 
2003/8/4,17:15:00,29.3 ,69.8 ,28.4 ,,30.2 
2003/8/4,17:30:00,29.2 ,70.9 ,28.4 ,,30.4 
2003/8/4,17:45:00,29.2 ,71.3 ,28.4 ,,32.0 
2003/8/4,18:00:00,29.1 ,72.4 ,28.3 ,,34.1 
2003/8/4,18:15:00,29.1 ,73.0 ,28.2 ,,32.6 
2003/8/4,18:30:00,29.2 ,72.3 ,28.3 ,,31.3 
2003/8/4,18:45:00,29.1 ,72.1 ,28.3 ,,30.7 
2003/8/4,19:00:00,29.1 ,72.3 ,28.2 ,,30.3 
2003/8/4,19:15:00,29.0 ,72.2 ,28.2 ,,30.0 
2003/8/4,19:30:00,29.0 ,71.9 ,28.1 ,,29.7 
2003/8/4,19:45:00,28.9 ,73.6 ,28.0 ,,29.7 
2003/8/4,20:00:00,28.9 ,73.5 ,28.0 ,,30.1 
2003/8/4,20:15:00,28.8 ,74.3 ,28.0 ,,29.8 
2003/8/4,20:30:00,28.8 ,74.5 ,28.0 ,,29.7 
2003/8/4,20:45:00,28.6 ,74.6 ,28.0 ,,29.5 
2003/8/4,21:00:00,28.6 ,75.3 ,27.9 ,,29.3 
2003/8/4,21:15:00,28.6 ,74.6 ,27.9 ,,29.2 
2003/8/4,21:30:00,28.6 ,74.5 ,27.8 ,,29.0 
2003/8/4,21:45:00,28.5 ,75.1 ,27.8 ,,29.0 
2003/8/4,22:00:00,28.4 ,75.8 ,27.8 ,,28.9 
2003/8/4,22:15:00,28.4 ,75.8 ,27.8 ,,28.9 
2003/8/4,22:30:00,28.5 ,75.4 ,27.8 ,,28.8 
2003/8/4,22:45:00,28.5 ,75.3 ,27.8 ,,28.8 
2003/8/4,23:00:00,28.4 ,75.5 ,27.7 ,,28.7 
2003/8/4,23:15:00,28.5 ,74.7 ,27.7 ,,28.7 
2003/8/4,23:30:00,28.5 ,75.0 ,27.7 ,,28.7 
2003/8/4,23:45:00,28.5 ,75.1 ,27.7 ,,28.8 
2003/8/5,0:00:00,28.5 ,75.1 ,27.7 ,,28.8 
2003/8/5,0:15:00,28.4 ,75.2 ,27.7 ,,28.8 
2003/8/5,0:30:00,28.4 ,75.1 ,27.6 ,,28.8 
2003/8/5,0:45:00,28.3 ,75.6 ,27.6 ,,28.6 
2003/8/5,1:00:00,28.3 ,75.5 ,27.6 ,,28.5 
2003/8/5,1:15:00,28.3 ,75.3 ,27.6 ,,28.5 
2003/8/5,1:30:00,28.3 ,75.0 ,27.6 ,,28.6 
2003/8/5,1:45:00,28.3 ,74.8 ,27.6 ,,28.7 
2003/8/5,2:00:00,28.3 ,75.7 ,27.6 ,,28.6 
2003/8/5,2:15:00,28.3 ,75.7 ,27.6 ,,28.6 
2003/8/5,2:30:00,28.3 ,75.1 ,27.6 ,,28.6 
2003/8/5,2:45:00,28.3 ,75.6 ,27.5 ,,28.6 
2003/8/5,3:00:00,28.3 ,76.5 ,27.5 ,,28.6 
2003/8/5,3:15:00,28.2 ,76.7 ,27.5 ,,28.6 
2003/8/5,3:30:00,28.2 ,77.1 ,27.5 ,,28.5 
2003/8/5,3:45:00,28.1 ,77.1 ,27.5 ,,28.5 
2003/8/5,4:00:00,28.0 ,77.1 ,27.5 ,,28.4 
2003/8/5,4:15:00,28.0 ,77.3 ,27.5 ,,28.3 
2003/8/5,4:30:00,28.1 ,76.3 ,27.4 ,,28.4 
2003/8/5,4:45:00,28.1 ,75.9 ,27.4 ,,28.4 
2003/8/5,5:00:00,28.1 ,75.5 ,27.4 ,,28.5 
2003/8/5,5:15:00,28.1 ,75.2 ,27.4 ,,28.5 
2003/8/5,5:30:00,28.1 ,75.0 ,27.4 ,,28.4 
2003/8/5,5:45:00,28.1 ,74.8 ,27.4 ,,28.4 
2003/8/5,6:00:00,28.1 ,74.7 ,27.4 ,,28.4 
2003/8/5,6:15:00,28.1 ,74.6 ,27.4 ,,28.4 
2003/8/5,6:30:00,28.1 ,74.6 ,27.4 ,,28.4 
2003/8/5,6:45:00,28.1 ,74.5 ,27.4 ,,28.4 
2003/8/5,7:00:00,28.2 ,74.4 ,27.3 ,,28.5 
2003/8/5,7:15:00,28.1 ,74.3 ,27.3 ,,28.5 
2003/8/5,7:30:00,28.1 ,74.4 ,27.3 ,,28.5 
2003/8/5,7:45:00,28.1 ,74.7 ,27.3 ,,28.4 
2003/8/5,8:00:00,28.1 ,75.5 ,27.3 ,,28.6 
2003/8/5,8:15:00,28.0 ,78.3 ,27.2 ,,28.5 
2003/8/5,8:30:00,27.9 ,78.2 ,27.1 ,,28.3 
2003/8/5,8:45:00,27.9 ,79.3 ,27.1 ,,28.2 
2003/8/5,9:00:00,27.7 ,79.8 ,27.1 ,,28.0 
2003/8/5,9:15:00,27.5 ,80.9 ,27.0 ,,27.8 
2003/8/5,9:30:00,27.4 ,81.8 ,26.9 ,,27.6 
2003/8/5,9:45:00,27.3 ,83.1 ,26.9 ,,27.5 
2003/8/5,10:00:00,27.4 ,83.8 ,26.9 ,,27.5 
2003/8/5,10:15:00,27.4 ,83.0 ,26.9 ,,27.5 
2003/8/5,10:30:00,27.6 ,82.2 ,27.0 ,,27.7 
2003/8/5,10:45:00,27.6 ,81.8 ,27.1 ,,27.8 
2003/8/5,11:00:00,27.8 ,81.3 ,27.1 ,,28.0 
2003/8/5,11:15:00,27.8 ,80.0 ,27.1 ,,28.1 
2003/8/5,11:30:00,28.0 ,79.3 ,27.2 ,,28.1 
2003/8/5,11:45:00,28.0 ,79.5 ,27.2 ,,28.3 
2003/8/5,12:00:00,28.1 ,79.9 ,27.2 ,,28.3 
2003/8/5,12:15:00,28.0 ,80.0 ,27.2 ,,28.3 
2003/8/5,12:30:00,27.8 ,81.3 ,27.2 ,,28.1 
2003/8/5,12:45:00,27.6 ,81.5 ,27.1 ,,27.9 
2003/8/5,13:00:00,27.4 ,83.3 ,27.0 ,,27.7 
2003/8/5,13:15:00,27.4 ,84.1 ,27.0 ,,27.6 
2003/8/5,13:30:00,27.1 ,85.4 ,26.9 ,,27.5 
2003/8/5,13:45:00,27.1 ,85.5 ,26.9 ,,27.5 
2003/8/5,14:00:00,27.3 ,86.8 ,27.0 ,,27.5 
2003/8/5,14:15:00,27.4 ,86.2 ,27.0 ,,27.6 
2003/8/5,14:30:00,27.4 ,84.5 ,27.0 ,,27.7 
2003/8/5,14:45:00,27.4 ,84.3 ,27.0 ,,27.9 
2003/8/5,15:00:00,27.5 ,85.2 ,27.0 ,,28.3 
2003/8/5,15:15:00,27.4 ,83.9 ,27.1 ,,28.7 
2003/8/5,15:30:00,27.6 ,81.9 ,27.1 ,,28.5 
2003/8/5,15:45:00,27.6 ,84.6 ,27.1 ,,28.5 
2003/8/5,16:00:00,27.7 ,81.4 ,27.1 ,,28.4 
2003/8/5,16:15:00,27.8 ,82.5 ,27.2 ,,28.4 
2003/8/5,16:30:00,27.8 ,80.3 ,27.2 ,,28.5 
2003/8/5,16:45:00,27.9 ,81.2 ,27.2 ,,28.5 
2003/8/5,17:00:00,28.0 ,80.3 ,27.2 ,,28.5 
2003/8/5,17:15:00,28.0 ,80.4 ,27.2 ,,28.5 
2003/8/5,17:30:00,28.1 ,79.9 ,27.2 ,,28.5 
2003/8/5,17:45:00,28.0 ,80.9 ,27.2 ,,28.5 
2003/8/5,18:00:00,27.9 ,80.8 ,27.2 ,,28.4 
2003/8/5,18:15:00,27.8 ,81.1 ,27.2 ,,28.3 
2003/8/5,18:30:00,27.6 ,81.6 ,27.1 ,,28.1 
2003/8/5,18:45:00,27.7 ,81.6 ,27.1 ,,28.1 
2003/8/5,19:00:00,27.6 ,81.3 ,27.0 ,,28.0 
2003/8/5,19:15:00,27.5 ,80.9 ,27.0 ,,28.8 
2003/8/5,19:30:00,27.5 ,80.8 ,26.9 ,,28.8 
2003/8/5,19:45:00,27.5 ,80.5 ,27.0 ,,28.7 
2003/8/5,20:00:00,27.4 ,81.2 ,27.0 ,,28.6 
2003/8/5,20:15:00,27.3 ,81.1 ,26.9 ,,28.5 
2003/8/5,20:30:00,27.3 ,81.0 ,26.9 ,,28.4 
2003/8/5,20:45:00,27.2 ,81.2 ,26.9 ,,28.3 
2003/8/5,21:00:00,27.2 ,81.3 ,26.8 ,,28.2 
2003/8/5,21:15:00,27.1 ,80.9 ,26.8 ,,28.1 
2003/8/5,21:30:00,27.0 ,80.8 ,26.8 ,,28.0 
2003/8/5,21:45:00,27.0 ,80.7 ,26.7 ,,27.9 
2003/8/5,22:00:00,27.0 ,80.7 ,26.7 ,,27.8 
2003/8/5,22:15:00,26.9 ,81.1 ,26.6 ,,27.6 
2003/8/5,22:30:00,26.9 ,81.2 ,26.6 ,,27.6 
2003/8/5,22:45:00,26.9 ,81.4 ,26.6 ,,27.6 
2003/8/5,23:00:00,26.7 ,81.8 ,26.5 ,,27.5 
2003/8/5,23:15:00,26.7 ,81.8 ,26.5 ,,27.4 
2003/8/5,23:30:00,26.7 ,81.9 ,26.4 ,,27.4 
2003/8/5,23:45:00,26.7 ,81.8 ,26.4 ,,27.3 
2003/8/6,0:00:00,26.9 ,80.7 ,26.4 ,,27.4 
2003/8/6,0:15:00,26.9 ,80.5 ,26.4 ,,27.5 
2003/8/6,0:30:00,27.0 ,80.0 ,26.5 ,,27.5 
2003/8/6,0:45:00,27.0 ,79.7 ,26.4 ,,27.5 
2003/8/6,1:00:00,27.0 ,79.6 ,26.4 ,,27.5 
2003/8/6,1:15:00,27.0 ,79.5 ,26.4 ,,27.5 
2003/8/6,1:30:00,27.1 ,79.4 ,26.4 ,,27.5 
2003/8/6,1:45:00,27.1 ,79.2 ,26.4 ,,27.5 
2003/8/6,2:00:00,27.1 ,79.2 ,26.4 ,,27.5 
2003/8/6,2:15:00,27.1 ,79.0 ,26.4 ,,27.4 
2003/8/6,2:30:00,27.1 ,78.8 ,26.4 ,,27.4 
2003/8/6,2:45:00,27.1 ,78.8 ,26.4 ,,27.4 
2003/8/6,3:00:00,27.1 ,78.7 ,26.4 ,,27.4 
2003/8/6,3:15:00,27.0 ,78.6 ,26.4 ,,27.4 
2003/8/6,3:30:00,27.0 ,78.4 ,26.4 ,,27.3 
2003/8/6,3:45:00,27.0 ,78.4 ,26.4 ,,27.3 
2003/8/6,4:00:00,27.0 ,78.2 ,26.4 ,,27.3 
2003/8/6,4:15:00,27.0 ,78.3 ,26.3 ,,27.3 
2003/8/6,4:30:00,27.0 ,78.3 ,26.3 ,,27.3 
2003/8/6,4:45:00,27.0 ,78.2 ,26.3 ,,27.2 
2003/8/6,5:00:00,27.0 ,78.2 ,26.3 ,,27.2 
2003/8/6,5:15:00,27.0 ,78.2 ,26.3 ,,27.2 
2003/8/6,5:30:00,27.0 ,78.1 ,26.3 ,,27.2 
2003/8/6,5:45:00,27.0 ,78.1 ,26.3 ,,27.3 
2003/8/6,6:00:00,26.9 ,78.1 ,26.3 ,,27.2 
2003/8/6,6:15:00,26.9 ,78.0 ,26.3 ,,27.2 
2003/8/6,6:30:00,27.0 ,78.1 ,26.3 ,,27.2 
2003/8/6,6:45:00,27.0 ,78.0 ,26.3 ,,27.2 
2003/8/6,7:00:00,27.1 ,78.0 ,26.3 ,,27.3 
2003/8/6,7:15:00,27.1 ,77.7 ,26.3 ,,27.4 
2003/8/6,7:30:00,27.2 ,77.6 ,26.3 ,,27.4 
2003/8/6,7:45:00,27.2 ,78.6 ,26.3 ,,27.5 
2003/8/6,8:00:00,27.2 ,79.4 ,26.3 ,,27.5 
2003/8/6,8:15:00,27.1 ,79.9 ,26.3 ,,27.5 
2003/8/6,8:30:00,27.1 ,80.2 ,26.3 ,,27.4 
2003/8/6,8:45:00,27.2 ,80.3 ,26.3 ,,27.5 
2003/8/6,9:00:00,27.4 ,81.4 ,26.4 ,,27.5 
2003/8/6,9:15:00,27.6 ,80.4 ,26.4 ,,27.7 
2003/8/6,9:30:00,27.7 ,79.0 ,26.4 ,,27.9 
2003/8/6,9:45:00,27.8 ,77.7 ,26.4 ,,27.9 
2003/8/6,10:00:00,27.9 ,76.7 ,26.5 ,,28.0 
2003/8/6,10:15:00,28.0 ,76.5 ,26.5 ,,28.1 
2003/8/6,10:30:00,28.1 ,75.8 ,26.6 ,,28.3 
2003/8/6,10:45:00,28.3 ,76.4 ,26.6 ,,28.4 
2003/8/6,11:00:00,28.4 ,75.5 ,26.6 ,,28.5 
2003/8/6,11:15:00,28.5 ,75.5 ,26.7 ,,28.5 
2003/8/6,11:30:00,28.6 ,74.3 ,26.7 ,,28.6 
2003/8/6,11:45:00,28.6 ,74.5 ,26.8 ,,28.7 
2003/8/6,12:00:00,28.7 ,73.6 ,26.8 ,,28.8 
2003/8/6,12:15:00,28.8 ,73.3 ,26.8 ,,28.8 
2003/8/6,12:30:00,28.8 ,73.9 ,26.9 ,,28.9 